Stations météo

Publicité
La Rochelle/Ile de Re, France (7316): Température de l'air & dewpoint: 10.11.2018 16:00:00 - 16.11.2018 16:00:00 (CET)La Rochelle/Ile de Re, France (7316): Vitesse du vent & gusts: 10.11.2018 16:00:00 - 16.11.2018 16:00:00 (CET)La Rochelle/Ile de Re, France (7316): Direction du vent: 10.11.2018 16:00:00 - 16.11.2018 16:00:00 (CET)La Rochelle/Ile de Re, France (7316): reduced air pressure: 10.11.2018 16:00:00 - 16.11.2018 16:00:00 (CET)La Rochelle/Ile de Re, France (7316): visibility: 10.11.2018 16:00:00 - 16.11.2018 16:00:00 (CET)La Rochelle/Ile de Re, France (7316): Ensoleillement: 10.11.2018 16:00:00 - 16.11.2018 16:00:00 (CET)La Rochelle/Ile de Re, France (7316): Quantités de précipitations: 10.11.2018 16:00:00 - 16.11.2018 16:00:00 (CET)
Date & Time tt [°C] td [°C] ff [km/h] ff [knt] fx [km/h] fx [knt] dd ppp [hPa] vv [km] sd [min] rr [mm]
16.11.2018 16:00:00 18,7 12,9 14 8 23 12 ESE 1020,2 56 60 0,0
16.11.2018 15:00:00 18,8 12,1 19 10 26 14 SE 1020,5 20 60 0,0
16.11.2018 14:00:00 18,2 12,9 12 6 19 10 SE 1021,2 22 60 0,0
16.11.2018 13:00:00 17,5 12,0 12 7 16 9 SSE 1021,7 21 60 0,0
16.11.2018 12:00:00 16,4 12,0 12 6 22 12 SE 1022,2 18 60 0,0
16.11.2018 11:00:00 14,4 11,4 16 8 23 13 SSE 1022,2 17 60 0,0
16.11.2018 10:00:00 12,5 10,7 15 8 21 11 SE 1021,9 13 60 0,0
16.11.2018 09:00:00 10,5 9,9 11 6 17 9 SE 1021,7 7 28 0,0
16.11.2018 08:00:00 10,3 9,4 12 7 21 11 SE 1021,1 6 0 0,0
16.11.2018 07:00:00 11,6 10,5 14 8 25 14 SSE 1021,0 10 0 0,0
16.11.2018 06:00:00 12,2 11,1 15 8 25 13 S 1020,9 12 0 0,0
16.11.2018 05:00:00 12,4 11,1 16 8 20 11 SSE 1020,7 12 0 0,0
16.11.2018 04:00:00 12,8 11,5 15 8 22 12 S 1020,5 12 0 0,0
16.11.2018 03:00:00 12,5 11,4 12 6 19 11 SSE 1020,7 11 0 0,0
16.11.2018 02:00:00 13,4 12,0 13 7 19 10 SSE 1020,6 16 0 0,0
16.11.2018 01:00:00 13,3 12,2 13 7 18 10 SSE 1020,8 13 0 0,2
16.11.2018 00:00:00 13,3 12,0 11 6 18 10 SSE 1020,7 13 0 0,0
15.11.2018 23:00:00 12,6 11,7 12 6 16 9 SSE 1020,6 13 0 0,0
15.11.2018 22:00:00 12,5 12,0 11 6 13 7 SSE 1020,5 9 0 0,0
15.11.2018 21:00:00 12,9 12,0 10 6 13 7 SE 1020,2 9 0 0,0
15.11.2018 20:00:00 13,4 12,8 8 5 11 6 SE 1019,8 10 0 0,0
15.11.2018 19:00:00 14,6 11,7 4 2 7 4 E 1019,5 15 0 0,0
15.11.2018 18:00:00 15,5 13,2 0 0 8 4 N 1019,2 16 7 0,0
15.11.2018 17:00:00 17,5 13,2 5 3 10 5 SSW 1018,7 20 60 0,0
15.11.2018 16:00:00 18,7 13,8 6 4 16 9 WSW 1018,9 19 60 0,0
15.11.2018 15:00:00 19,3 14,1 10 5 19 10 SSW 1018,8 22 60 0,0
15.11.2018 14:00:00 18,7 13,5 11 6 24 13 SSW 1019,0 16 60 0,0
15.11.2018 13:00:00 17,7 13,4 17 9 29 15 S 1019,1 14 60 0,0
15.11.2018 12:00:00 16,6 12,7 19 10 33 18 S 1019,5 13 60 0,0
15.11.2018 11:00:00 15,4 12,3 21 11 35 19 S 1019,8 12 60 0,0
15.11.2018 10:00:00 14,0 11,5 21 11 30 16 S 1019,6 11 60 0,0
15.11.2018 09:00:00 12,5 10,9 18 10 24 13 SSE 1019,3 16 30 0,0
15.11.2018 08:00:00 11,9 10,5 18 10 29 16 SSE 1018,8 16 0 0,0
15.11.2018 07:00:00 11,9 10,6 19 11 29 16 SSE 1018,5 16 0 0,0
15.11.2018 06:00:00 11,9 10,5 18 10 29 16 SE 1018,4 16 0 0,0
15.11.2018 05:00:00 12,9 11,0 19 10 29 16 SE 1018,4 20 0 0,0
15.11.2018 04:00:00 13,6 11,3 19 10 30 16 SSE 1018,7 23 0 0,0
15.11.2018 03:00:00 13,5 11,2 19 11 30 16 SE 1019,0 24 0 0,0
15.11.2018 02:00:00 12,9 11,1 18 10 28 15 SE 1019,1 19 0 0,0
15.11.2018 01:00:00 13,3 11,5 16 9 23 13 SE 1019,5 20 0 0,0
15.11.2018 00:00:00 12,9 11,5 14 8 19 10 SE 1019,8 17 0 0,0
14.11.2018 23:00:00 12,7 11,6 13 7 19 10 ESE 1020,1 15 0 0,0
14.11.2018 22:00:00 12,7 11,6 14 8 17 9 ESE 1020,3 12 0 0,0
14.11.2018 21:00:00 12,0 11,4 12 6 14 8 SE 1020,4 8 0 0,0
14.11.2018 20:00:00 12,7 11,8 10 5 15 8 SE 1020,8 8 0 0,0
14.11.2018 19:00:00 14,2 12,8 11 6 19 10 SE 1021,1 13 0 0,0
14.11.2018 18:00:00 14,1 12,5 6 3 11 6 SSE 1021,1 11 5 0,0
14.11.2018 17:00:00 15,6 12,9 8 4 16 9 S 1021,3 24 44 0,0
14.11.2018 16:00:00 16,7 13,2 11 6 20 11 S 1021,5 20 60 0,0
14.11.2018 15:00:00 16,9 13,4 11 6 22 12 SSW 1021,5 15 60 0,0
14.11.2018 14:00:00 16,4 13,7 10 5 22 12 SSW 1022,0 15 51 0,0
14.11.2018 13:00:00 14,4 13,3 10 5 24 13 S 1022,3 15 5 0,0
14.11.2018 12:00:00 12,3 12,1 13 7 26 14 SSE 1023,0 1,5 0 0,0
14.11.2018 11:00:00 11,4 11,1 16 9 24 13 S 1023,4 2,2 0 0,0
14.11.2018 10:00:00 11,0 10,7 13 7 30 16 SSE 1023,7 9 9 0,0
14.11.2018 09:00:00 9,7 9,1 14 8 23 12 SSE 1023,9 19 31 0,0
14.11.2018 08:00:00 8,5 7,9 11 6 17 9 SSE 1023,7 20 0 0,0
14.11.2018 07:00:00 7,9 7,3 13 7 19 11 SE 1023,7 19 0 0,0
14.11.2018 06:00:00 7,3 6,9 11 6 15 8 SE 1024,1 17 0 0,0
14.11.2018 05:00:00 6,9 6,3 10 6 15 8 SE 1024,5 14 0 0,0
14.11.2018 04:00:00 7,0 6,6 13 7 18 10 ESE 1025,0 10 0 0,0
14.11.2018 03:00:00 7,4 6,8 13 7 18 10 ESE 1025,6 11 0 0,0
14.11.2018 02:00:00 7,9 7,3 14 8 19 10 ESE 1025,8 15 0 0,0
14.11.2018 01:00:00 7,7 7,3 12 7 16 9 ESE 1026,7 13 0 0,0
14.11.2018 00:00:00 7,9 7,3 12 6 16 9 ESE 1027,0 12 0 0,0
13.11.2018 23:00:00 8,2 7,9 13 7 18 10 ESE 1027,4 6 0 0,0
13.11.2018 22:00:00 8,1 7,7 9 5 14 7 ESE 1028,2 7 0 0,0
13.11.2018 21:00:00 8,5 8,1 10 5 13 7 ESE 1028,2 7 0 0,0
13.11.2018 20:00:00 9,7 8,9 9 5 14 8 SE 1028,4 16 0 0,0
13.11.2018 19:00:00 9,6 8,5 9 5 13 7 SSE 1028,5 20 0 0,0
13.11.2018 18:00:00 11,3 9,4 9 5 23 12 SSE 1028,5 56 9 0,0
13.11.2018 17:00:00 13,7 9,7 13 7 20 11 SSE 1028,7 53 58 0,0
13.11.2018 16:00:00 14,5 10,9 13 7 19 10 S 1028,5 27 60 0,0
13.11.2018 15:00:00 14,6 11,7 14 8 21 12 SSW 1028,3 19 60 0,0
13.11.2018 14:00:00 13,2 12,4 13 7 22 12 SSW 1028,6 10 20 0,0
13.11.2018 13:00:00 14,3 12,3 8 4 16 9 SSW 1028,9 17 55 0,0
13.11.2018 12:00:00 12,8 12,0 11 6 15 8 S 1029,5 12 40 0,0
13.11.2018 11:00:00 11,3 11,1 9 5 17 9 S 1029,2 0,2 2 0,0
13.11.2018 10:00:00 10,9 10,4 11 6 17 9 S 1028,5 0,2 40 0,0
13.11.2018 09:00:00 12,0 11,7 8 5 14 8 S 1027,6 8 33 0,0
13.11.2018 08:00:00 11,1 10,8 10 6 15 8 S 1027,0 11 0 0,0
13.11.2018 07:00:00 11,5 10,9 8 5 14 7 SSW 1026,2 12 0 0,0
13.11.2018 06:00:00 11,8 11,0 9 5 15 8 WSW 1025,7 19 0 0,0
13.11.2018 05:00:00 11,6 11,0 8 5 15 8 SSW 1025,0 16 0 0,0
13.11.2018 04:00:00 12,0 11,4 12 7 19 10 SSW 1024,4 19 0 0,0
13.11.2018 03:00:00 11,9 11,3 9 5 13 7 SW 1024,0 17 0 0,0
13.11.2018 02:00:00 11,9 11,3 8 4 16 9 WSW 1023,0 19 0 0,0
13.11.2018 01:00:00 12,5 11,9 10 5 16 9 SW 1022,6 34 0 0,0
13.11.2018 00:00:00 12,7 11,8 10 5 21 12 SW 1022,2 38 0 0,0
12.11.2018 23:00:00 12,8 11,5 13 7 21 11 WSW 1021,7 55 0 0,0
12.11.2018 22:00:00 12,5 10,7 12 6 22 12 SW 1020,9 60 0 0,0
12.11.2018 21:00:00 12,4 10,8 13 7 20 11 SSW 1020,3 50 0 0,0
12.11.2018 20:00:00 12,4 10,8 10 5 19 10 SW 1020,0 20 0 0,0
12.11.2018 19:00:00 12,6 10,5 11 6 16 9 SSW 1019,5 37 0 0,0
12.11.2018 18:00:00 12,6 10,3 10 5 17 9 SSW 1018,8 55 0 0,0
12.11.2018 17:00:00 12,8 10,3 12 7 22 12 SSW 1018,3 60 0 0,0
12.11.2018 16:00:00 13,2 10,0 14 8 25 14 SW 1017,9 60 5 0,0
12.11.2018 15:00:00 13,9 10,3 14 8 23 12 WSW 1017,6 55 21 0,0
12.11.2018 14:00:00 14,6 9,8 13 7 19 11 WSW 1017,3 58 53 0,0
12.11.2018 13:00:00 14,3 9,9 9 5 16 8 SSW 1016,8 53 51 0,0
12.11.2018 12:00:00 12,8 10,3 8 5 16 9 SSW 1016,9 59 0 0,0
12.11.2018 11:00:00 12,3 10,4 12 7 19 10 SW 1016,4 59 0 0,0
12.11.2018 10:00:00 11,8 11,0 8 4 12 6 SW 1015,4 52 9 0,0
12.11.2018 09:00:00 10,9 10,6 7 4 10 5 S 1014,7 14 0 0,4
12.11.2018 08:00:00 10,3 9,7 0 0 4 2 N 1013,8 60 0 0,0
12.11.2018 07:00:00 10,5 10,0 0 0 4 2 N 1012,9 13 0 0,4
12.11.2018 06:00:00 10,6 10,1 2 1 5 3 N 1012,1 25 0 1,3
12.11.2018 05:00:00 10,7 10,2 4 2 5 3 NW 1011,1 5 0 2,2
12.11.2018 04:00:00 10,7 9,9 0 0 6 3 N 1010,5 8 0 2,4
12.11.2018 03:00:00 11,2 10,7 3 1 6 4 SW 1010,8 3,8 0 2,8
12.11.2018 02:00:00 11,1 10,5 5 3 9 5 S 1010,0 5 0 2,6
12.11.2018 01:00:00 11,6 11,0 6 4 13 7 SW 1010,2 6 0 2,9
12.11.2018 00:00:00 12,0 11,1 8 4 14 7 WSW 1009,9 8 0 0,8
11.11.2018 23:00:00 12,4 11,8 8 4 14 8 SSW 1010,1 9 0 0,6
11.11.2018 22:00:00 12,5 11,9 7 4 14 8 S 1009,9 6 0 0,4
11.11.2018 21:00:00 12,7 11,9 9 5 18 10 SW 1010,4 7 0 1,4
11.11.2018 20:00:00 12,9 12,0 10 6 14 7 SSW 1009,8 7 0 0,4
11.11.2018 19:00:00 13,1 11,8 8 5 18 10 SW 1009,6 10 0 0,6
11.11.2018 18:00:00 13,4 11,6 8 5 16 8 SSW 1009,1 47 0 0,0
11.11.2018 17:00:00 13,8 11,3 10 5 21 11 WSW 1009,1 60 0 0,0
11.11.2018 16:00:00 13,8 11,7 13 7 21 11 SSW 1008,1 23 0 0,0
11.11.2018 15:00:00 14,2 11,2 13 7 25 13 SW 1008,3 60 0 0,0
11.11.2018 14:00:00 14,5 10,9 9 5 24 13 WSW 1007,8 57 8 0,2
11.11.2018 13:00:00 14,4 12,1 15 8 28 15 W 1007,7 9 0 0,0
11.11.2018 12:00:00 14,2 11,4 14 8 34 19 SSW 1006,9 17 3 0,0
11.11.2018 11:00:00 14,9 11,7 19 11 29 16 SSW 1006,8 13 24 0,0
11.11.2018 10:00:00 14,0 12,2 19 11 31 17 SSW 1007,0 12 0 0,2
11.11.2018 09:00:00 12,5 10,9 13 7 37 20 SSW 1006,7 18 0 0,2
11.11.2018 08:00:00 12,4 10,5 26 14 36 20 S 1004,9 52 0 0,0
11.11.2018 07:00:00 13,1 11,3 24 13 40 21 S 1005,2 17 0 0,0
11.11.2018 06:00:00 14,1 11,6 25 14 46 25 SW 1005,3 20 0 0,0
11.11.2018 05:00:00 14,3 10,7 29 16 54 29 SW 1005,6 39 0 0,0
11.11.2018 04:00:00 14,4 11,7 29 16 50 27 SW 1005,2 19 0 0,0
11.11.2018 03:00:00 14,2 11,4 27 15 44 24 SSW 1005,2 19 0 0,0
11.11.2018 02:00:00 14,1 11,3 27 15 50 27 SW 1005,2 20 0 0,0
11.11.2018 01:00:00 13,9 11,6 31 17 49 26 SW 1005,2 20 0 0,0
11.11.2018 00:00:00 12,8 10,5 24 13 51 27 SW 1005,1 13 0 0,0
10.11.2018 23:00:00 13,2 9,3 34 18 64 34 W 1005,4 16 0 0,2
10.11.2018 22:00:00 13,6 12,0 26 14 45 24 SW 1004,9 16 0 0,0
10.11.2018 21:00:00 13,6 11,6 26 14 45 24 SW 1004,6 17 0 0,0
10.11.2018 20:00:00 13,6 11,8 27 15 45 24 SSW 1004,3 17 0 0,0
10.11.2018 19:00:00 13,8 11,7 26 14 43 23 SW 1004,3 15 0 0,0
10.11.2018 18:00:00 14,2 11,7 27 15 46 25 SW 1004,1 13 0 0,0
10.11.2018 17:00:00 14,3 11,4 27 15 46 25 SW 1003,9 12 0 0,0
10.11.2018 16:00:00 14,6 11,4 25 13 44 24 WSW 1003,6 13 7 0,0

tt = Température de l'air
td = dewpoint
ff = Vitesse du vent
fx = gusts
dd = Direction du vent
ppp = reduced air pressure
vv = visibility
sd = Ensoleillement
rr = Quantités de précipitations

stations d'obs. à proximité